Location: Allen Generating Plant
(35.0740°N, 90.1490°W)
Time: 04:44:12
(UTC+00:00)

ISS - Pass Details

Date: 04 October 2024
Orbit: 407 x 419 km, 51.6° (Epoch: 03 November)

Event Time Altitude Azimuth Distance (km) Brightness Sun altitude
Rises 00:01:07 0° 310° (NW) 2,371 0.9 -5.0°
Reaches altitude 10° 00:03:13 10° 309° (NW) 1,509 -0.1 -5.4°
Maximum altitude 00:06:36 75° 224° (SW) 444 -3.5 -6.1°
Drops below altitude 10° 00:09:59 10° 139° (SE) 1,515 -1.3 -6.8°
Enters shadow 00:12:03 - 137° (SE) 2,364 -0.3 -7.2°
